When you browse on this site, cookies collect data to enhance your experience and personalize the content and advertising you see.
Visit our Privacy Policy to learn more. By continuing to use the site, you agree to this use of cookies and data.
  • In Latvia
  • List of Countries
  • For 7 days
  • Water Temperature
  • Satellite Maps
  • Weather Map
  • Weather Widgets
  • user-avatar
    Login

    Hourly Weather Solden

    Today, 24 March, Sunday

    Time Temperature Precipitation Wind Pressure Humidity
    00:00 0°C° 0 mm 1 mps 585 mmHg 66%
    01:00 -1°C° 0 mm 1 mps 585 mmHg 62%
    02:00 -1°C° 0 mm 1 mps 585 mmHg 63%
    03:00 -1°C° 0 mm 1 mps 584 mmHg 63%
    04:00 -2°C° 0 mm 1 mps 584 mmHg 64%
    05:00 -2°C° 0 mm 1 mps 584 mmHg 63%
    06:00 -2°C° 0 mm 1 mps 584 mmHg 62%
    07:00 -3°C° 0 mm 2 mps 584 mmHg 58%
    08:00 +2°C° 0 mm 1 mps 585 mmHg 56%
    09:00 +4°C° 0 mm 1 mps 586 mmHg 54%
    10:00 +6°C° 0 mm 0 mps 587 mmHg 52%
    11:00 +7°C° 0 mm 1 mps 587 mmHg 51%
    12:00 +8°C° 0 mm 1 mps 587 mmHg 49%
    13:00 +9°C° 0 mm 1 mps 587 mmHg 47%
    14:00 +9°C° 0 mm 1 mps 587 mmHg 47%
    15:00 +8°C° 0 mm 1 mps 586 mmHg 48%
    16:00 +8°C° 0 mm 1 mps 586 mmHg 49%
    17:00 +6°C° 0 mm 1 mps 585 mmHg 54%
    18:00 +4°C° 0 mm 1 mps 584 mmHg 59%
    19:00 +2°C° 0 mm 1 mps 582 mmHg 64%
    20:00 +1°C° 0 mm 1 mps 582 mmHg 68%
    21:00 -2°C° 0 mm 2 mps 582 mmHg 73%
    22:00 -2°C° 0 mm 2 mps 582 mmHg 77%
    23:00 -2°C° 0 mm 2 mps 582 mmHg 78%

    Tomorrow, 25 March, Monday

    Time Temperature Precipitation Wind Pressure Humidity
    00:00 -3°C° 0 mm 2 mps 582 mmHg 79%
    01:00 -3°C° 0 mm 2 mps 582 mmHg 81%
    02:00 -3°C° 0 mm 2 mps 581 mmHg 81%
    03:00 -4°C° 0 mm 2 mps 580 mmHg 81%
    04:00 -4°C° 0 mm 2 mps 580 mmHg 82%
    05:00 -4°C° 0 mm 2 mps 580 mmHg 81%
    06:00 -4°C° 0 mm 2 mps 580 mmHg 80%
    07:00 -4°C° 0 mm 2 mps 580 mmHg 80%
    08:00 -2°C° 0 mm 2 mps 581 mmHg 72%
    09:00 +1°C° 0 mm 2 mps 581 mmHg 65%
    10:00 +3°C° 0 mm 2 mps 582 mmHg 58%
    11:00 +3°C° 0 mm 2 mps 582 mmHg 55%
    12:00 +4°C° 0 mm 2 mps 582 mmHg 52%
    13:00 +5°C° 0 mm 2 mps 582 mmHg 49%
    14:00 +4°C° 0 mm 2 mps 582 mmHg 49%
    15:00 +4°C° 0 mm 2 mps 581 mmHg 49%
    16:00 +2°C° 0 mm 3 mps 581 mmHg 49%
    17:00 0°C° 0.1 mm 3 mps 580 mmHg 55%
    18:00 -3°C° 0.1 mm 4 mps 579 mmHg 61%
    19:00 -5°C° 0.1 mm 4 mps 579 mmHg 66%
    20:00 -7°C° 0.1 mm 4 mps 579 mmHg 65%
    21:00 -8°C° 0.1 mm 4 mps 579 mmHg 64%
    22:00 -9°C° 0.1 mm 4 mps 579 mmHg 63%
    23:00 -10°C° 0 mm 4 mps 579 mmHg 63%

    Day after tomorrow, 26 March, Tuesday

    Time Temperature Precipitation Wind Pressure Humidity
    00:00 -11°C° 0 mm 4 mps 580 mmHg 63%
    01:00 -12°C° 0 mm 4 mps 580 mmHg 62%
    02:00 -10°C° 0 mm 3 mps 580 mmHg 63%
    03:00 -10°C° 0 mm 3 mps 581 mmHg 63%
    04:00 -9°C° 0 mm 2 mps 581 mmHg 63%
    05:00 -10°C° 0 mm 3 mps 581 mmHg 64%
    06:00 -12°C° 0 mm 3 mps 581 mmHg 64%
    07:00 -12°C° 0 mm 3 mps 581 mmHg 65%
    08:00 -9°C° 0 mm 3 mps 582 mmHg 57%
    09:00 -8°C° 0 mm 3 mps 583 mmHg 50%
    10:00 -6°C° 0 mm 3 mps 584 mmHg 42%
    11:00 -5°C° 0 mm 3 mps 585 mmHg 40%
    12:00 -4°C° 0 mm 3 mps 585 mmHg 37%
    13:00 -2°C° 0 mm 3 mps 585 mmHg 35%
    14:00 -2°C° 0 mm 3 mps 585 mmHg 36%
    15:00 -2°C° 0 mm 3 mps 585 mmHg 37%
    16:00 -2°C° 0 mm 3 mps 585 mmHg 39%
    17:00 -5°C° 0 mm 3 mps 584 mmHg 46%
    18:00 -7°C° 0 mm 3 mps 584 mmHg 54%
    19:00 -8°C° 0 mm 2 mps 583 mmHg 62%
    20:00 -8°C° 0 mm 2 mps 583 mmHg 64%
    21:00 -9°C° 0 mm 2 mps 583 mmHg 66%
    22:00 -10°C° 0 mm 2 mps 583 mmHg 68%
    23:00 -10°C° 0 mm 2 mps 583 mmHg 65%

    27 March, Wednesday

    Time Temperature Precipitation Wind Pressure Humidity
    00:00 -10°C° 0 mm 2 mps 583 mmHg 62%
    01:00 -10°C° 0 mm 2 mps 583 mmHg 59%
    02:00 -9°C° 0 mm 2 mps 583 mmHg 57%
    03:00 -9°C° 0 mm 2 mps 583 mmHg 56%
    04:00 -9°C° 0 mm 2 mps 584 mmHg 54%
    05:00 -8°C° 0 mm 2 mps 584 mmHg 54%
    06:00 -8°C° 0 mm 2 mps 584 mmHg 54%
    07:00 -8°C° 0 mm 2 mps 584 mmHg 54%
    08:00 -6°C° 0 mm 2 mps 585 mmHg 49%
    09:00 -4°C° 0 mm 2 mps 586 mmHg 45%
    10:00 0°C° 0 mm 1 mps 587 mmHg 40%
    11:00 -1°C° 0 mm 2 mps 587 mmHg 42%
    12:00 +1°C° 0 mm 2 mps 588 mmHg 43%
    13:00 +2°C° 0 mm 2 mps 588 mmHg 44%
    14:00 +2°C° 0 mm 2 mps 588 mmHg 46%
    15:00 +1°C° 0 mm 2 mps 587 mmHg 47%
    16:00 +1°C° 0 mm 2 mps 587 mmHg 49%
    17:00 -2°C° 0 mm 2 mps 587 mmHg 55%
    18:00 -4°C° 0 mm 2 mps 586 mmHg 61%
    19:00 -5°C° 0 mm 2 mps 585 mmHg 67%
    20:00 -6°C° 0 mm 2 mps 586 mmHg 69%
    21:00 -6°C° 0 mm 2 mps 586 mmHg 71%
    22:00 -7°C° 0 mm 2 mps 586 mmHg 73%
    23:00 -6°C° 0 mm 1 mps 586 mmHg 73%

    28 March, Thursday

    Time Temperature Precipitation Wind Pressure Humidity
    00:00 -7°C° 0 mm 1 mps 586 mmHg 73%
    01:00 -7°C° 0 mm 1 mps 586 mmHg 73%
    02:00 -8°C° 0 mm 2 mps 586 mmHg 72%
    03:00 -8°C° 0 mm 2 mps 585 mmHg 70%
    04:00 -8°C° 0 mm 2 mps 585 mmHg 69%
    05:00 -8°C° 0 mm 2 mps 586 mmHg 67%
    06:00 -8°C° 0 mm 2 mps 586 mmHg 65%
    07:00 -8°C° 0 mm 2 mps 586 mmHg 63%
    08:00 -5°C° 0 mm 2 mps 587 mmHg 58%
    09:00 -3°C° 0 mm 2 mps 588 mmHg 52%
    10:00 -1°C° 0 mm 2 mps 589 mmHg 47%
    11:00 +1°C° 0 mm 2 mps 589 mmHg 47%
    12:00 +3°C° 0 mm 1 mps 590 mmHg 46%
    13:00 +4°C° 0 mm 1 mps 590 mmHg 46%
    14:00 +3°C° 0 mm 2 mps 590 mmHg 46%
    15:00 +3°C° 0 mm 2 mps 589 mmHg 47%
    16:00 +3°C° 0 mm 2 mps 589 mmHg 48%
    17:00 +2°C° 0 mm 1 mps 588 mmHg 55%
    18:00 0°C° 0 mm 1 mps 588 mmHg 62%
    19:00 -2°C° 0 mm 1 mps 587 mmHg 69%
    20:00 -3°C° 0 mm 1 mps 587 mmHg 72%
    21:00 -3°C° 0 mm 1 mps 587 mmHg 76%
    22:00 -4°C° 0 mm 1 mps 587 mmHg 79%
    23:00 -4°C° 0 mm 1 mps 587 mmHg 80%

    29 March, Friday

    Time Temperature Precipitation Wind Pressure Humidity
    00:00 -6°C° 0 mm 0 mps 587 mmHg 81%
    01:00 -6°C° 0 mm 0 mps 587 mmHg 81%
    02:00 -6°C° 0 mm 0 mps 586 mmHg 82%
    03:00 -6°C° 0 mm 0 mps 586 mmHg 82%
    04:00 -7°C° 0 mm 0 mps 586 mmHg 82%
    05:00 -6°C° 0 mm 0 mps 586 mmHg 81%
    06:00 -6°C° 0 mm 0 mps 587 mmHg 79%
    07:00 -5°C° 0 mm 0 mps 587 mmHg 78%
    08:00 -3°C° 0 mm 0 mps 588 mmHg 70%
    09:00 0°C° 0 mm 1 mps 589 mmHg 62%
    10:00 +2°C° 0 mm 1 mps 590 mmHg 54%
    11:00 +3°C° 0 mm 1 mps 590 mmHg 50%
    12:00 +4°C° 0 mm 1 mps 590 mmHg 47%
    13:00 +5°C° 0 mm 1 mps 590 mmHg 43%
    14:00 +4°C° 0 mm 1 mps 590 mmHg 42%
    15:00 +4°C° 0 mm 1 mps 589 mmHg 42%
    16:00 +4°C° 0 mm 1 mps 589 mmHg 41%
    17:00 +2°C° 0 mm 1 mps 588 mmHg 49%
    18:00 0°C° 0 mm 1 mps 587 mmHg 56%
    19:00 -4°C° 0 mm 0 mps 586 mmHg 64%
    20:00 -3°C° 0 mm 1 mps 586 mmHg 66%
    21:00 -3°C° 0 mm 1 mps 586 mmHg 68%
    22:00 -4°C° 0 mm 1 mps 586 mmHg 70%
    23:00 -4°C° 0 mm 1 mps 586 mmHg 69%
    Show more